This demonstration page uses our WeatherBlox Daily Observations layout. Learn more.

Left ArrowRight Arrow

53.62937, 11.41316

Hourly Observations for December 20, 2021

Temp ( °F °C ) Dew Point ( °F °C ) Humidity (%) Winds ( mph kmh ) Pressure ( in mb ) Visibility ( mi km ) Precip ( " mm )
12:20 am 00:20 Mostly Clear 34 1 28 -2 81 81 WNW 6 9 30.24 1024 30 48 N/A
12:50 am 00:50 Mostly Clear 34 1 28 -2 81 81 W 5 7 30.24 1024 30 48 N/A
1:20 am 01:20 Mostly Clear 32 0 28 -2 87 87 WNW 5 7 30.24 1024 30 48 N/A
1:50 am 01:50 Mostly Clear 32 0 27 -3 80 80 W 5 7 30.27 1025 30 48 N/A
2:20 am 02:20 Mostly Clear 32 0 27 -3 80 80 WNW 6 9 30.27 1025 30 48 N/A
2:50 am 02:50 Mostly Clear 32 0 27 -3 80 80 WNW 5 7 30.27 1025 30 48 N/A
3:50 am 03:50 Mostly Clear 32 0 27 -3 80 80 WNW 5 7 30.24 1024 30 48 N/A
4:20 am 04:20 Mostly Clear 32 0 27 -3 80 80 W 5 7 30.27 1025 30 48 N/A
4:50 am 04:50 Mostly Clear 32 0 27 -3 80 80 WNW 6 9 30.27 1025 30 48 N/A
5:20 am 05:20 Mostly Clear 32 0 27 -3 80 80 W 5 7 30.27 1025 30 48 N/A
5:50 am 05:50 Mostly Clear 30 -1 27 -3 86 86 WNW 5 7 30.27 1025 30 48 N/A
6:20 am 06:20 Mostly Clear 32 0 27 -3 80 80 W 3 6 30.27 1025 7 11 N/A
6:50 am 06:50 Mostly Clear 30 -1 27 -3 86 86 W 3 6 30.27 1025 7 11 N/A
7:20 am 07:20 Mostly Clear 30 -1 27 -3 86 86 W 3 6 30.27 1025 7 11 N/A
7:50 am 07:50 Mostly Clear 30 -1 27 -3 86 86 W 5 7 30.27 1025 7 11 N/A
8:20 am 08:20 Mostly Clear 30 -1 28 -2 93 93 WSW 3 6 30.27 1025 7 11 N/A
8:50 am 08:50 Mostly Sunny 32 0 28 -2 87 87 W 3 6 30.30 1026 7 11 N/A
9:20 am 09:20 Mostly Sunny 32 0 28 -2 87 87 W 5 7 30.30 1026 7 11 N/A
9:50 am 09:50 Mostly Sunny 32 0 28 -2 87 87 W 5 7 30.30 1026 7 11 N/A
10:20 am 10:20 Mostly Sunny 34 1 28 -2 81 81 W 5 7 30.30 1026 7 11 N/A
10:50 am 10:50 Mostly Sunny 36 2 30 -1 81 81 W 3 6 30.30 1026 7 11 N/A
11:20 am 11:20 Mostly Sunny 37 3 32 0 81 81 NW 5 7 30.33 1027 7 11 N/A
11:50 am 11:50 Mostly Sunny 39 4 32 0 75 75 NNW 6 9 30.33 1027 7 11 N/A
12:20 pm 12:20 Mostly Sunny 39 4 34 1 81 81 NNW 7 11 30.33 1027 7 11 N/A
12:50 pm 12:50 Mostly Sunny 39 4 34 1 81 81 NNW 7 11 30.33 1027 7 11 N/A
1:20 pm 13:20 Mostly Sunny 41 5 34 1 76 76 NNW 6 9 30.30 1026 7 11 N/A
1:50 pm 13:50 Mostly Sunny 41 5 34 1 76 76 N 6 9 30.33 1027 7 11 N/A
2:20 pm 14:20 Mostly Sunny 39 4 34 1 81 81 NNW 6 9 30.33 1027 7 11 N/A
2:50 pm 14:50 Mostly Sunny 39 4 34 1 81 81 NW 5 7 30.33 1027 7 11 N/A
3:20 pm 15:20 Mostly Sunny 39 4 32 0 75 75 WNW 5 7 30.33 1027 7 11 N/A
3:50 pm 15:50 Mostly Sunny 37 3 34 1 87 87 WNW 5 7 30.33 1027 7 11 N/A
4:20 pm 16:20 Mostly Clear 36 2 32 0 87 87 WNW 6 9 30.33 1027 7 11 N/A
4:50 pm 16:50 Mostly Clear 36 2 32 0 87 87 WNW 6 9 30.33 1027 7 11 N/A
5:20 pm 17:20 Mostly Clear 34 1 32 0 93 93 W 3 6 30.33 1027 7 11 N/A
5:50 pm 17:50 Mostly Clear 34 1 30 -1 87 87 W 5 7 30.33 1027 7 11 N/A
6:20 pm 18:20 Mostly Clear 30 -1 30 -1 100 100 VRB 2 4 30.33 1027 7 11 N/A
6:50 pm 18:50 Mostly Clear 30 -1 30 -1 100 100 VRB 2 4 30.33 1027 7 11 N/A
7:20 pm 19:20 Mostly Clear 32 0 30 -1 93 93 W 5 7 30.33 1027 7 11 N/A
7:50 pm 19:50 Mostly Clear 32 0 28 -2 87 87 W 3 6 30.33 1027 7 11 N/A
8:20 pm 20:20 Partly Cloudy 32 0 28 -2 87 87 W 3 6 30.33 1027 30 48 N/A
8:50 pm 20:50 Mostly Clear 28 -2 28 -2 100 100 WSW 3 6 30.33 1027 30 48 N/A
9:20 pm 21:20 Mostly Clear 28 -2 27 -3 93 93 VRB 2 4 30.33 1027 30 48 N/A
9:50 pm 21:50 Mostly Clear 28 -2 28 -2 100 100 WSW 3 6 30.33 1027 30 48 N/A
10:20 pm 22:20 Mostly Clear 28 -2 27 -3 93 93 WSW 3 6 30.33 1027 30 48 N/A
10:50 pm 22:50 Mostly Clear 28 -2 27 -3 93 93 VRB 2 4 30.33 1027 30 48 N/A
11:20 pm 23:20 Mostly Clear 28 -2 27 -3 93 93 WSW 3 6 30.33 1027 30 48 N/A
11:50 pm 23:50 Mostly Clear 28 -2 27 -3 93 93 WSW 3 6 30.33 1027 30 48 N/A

Powered by AerisWeather